Zurück zum Katalog

EUTE 2-F1

AktivKommunikationGEO
NORAD 20777·PAYLOAD·🇪🇺 EU

Gestartet Aug 30, 1990 von Guiana Space Centre

Loading…

TLE

AktuellSource: Space-Track

Epoche: Sep 14, 2026, 00:08 UTC

1 20777U 90079B   26257.00588977 -.00000147  00000-0  00000-0 0  9997
2 20777  14.9015 357.2706 0005490 248.0686 114.8843  0.99349105111650

Verfolge EUTE 2-F1 in Echtzeit mit AllMySat

Download on the App Store